N7DTY Weather Reports


time (UTC)temp
C
wind
direction
speed
KPH
gust
KPH
rain 1hr
cm
rain 24hr
cm
rain mn
cm
humidity
%
barometer
mb
20260903034512 16 167 6.4 33.8 0.00 0.05 0.05 74 1004.2
20260903033014 16 167 8.0 27.4 0.00 0.05 0.05 73 1003.8
20260903031510 16 180 6.4 20.9 0.00 0.05 0.05 72 1003.5
20260903030011 17 175 9.7 25.7 0.00 0.05 0.05 70 1002.8
20260903024509 17 194 6.4 29.0 0.00 0.05 0.05 70 1002.4
20260903023009 17 200 3.2 24.1 0.00 0.05 0.05 71 1002.0
20260903021513 16 211 0.0 17.7 0.00 0.05 0.05 72 1002.0
20260903020008 16 195 3.2 27.4 0.03 0.05 0.05 72 1002.1
20260903014507 16 160 6.4 29.0 0.03 0.05 0.05 73 1002.1
20260903013006 16 194 8.0 22.5 0.05 0.05 0.05 75 1002.0
20260903011506 15 159 4.8 16.1 0.05 0.05 0.05 81 1002.0
20260903010004 15 193 3.2 12.9 0.03 0.03 0.03 84 1002.1
20260903004600 15 196 3.2 16.1 0.03 0.03 0.03 82 1002.5
20260903004502 15 173 4.8 16.1 0.03 0.03 0.03 81 1002.5
20260903003058 16 108 4.8 19.3 0.00 0.00 0.00 77 1002.6
20260903001557 16 154 8.0 24.1 0.00 0.00 0.00 77 1002.7
20260903000055 16 139 4.8 22.5 0.00 0.00 0.00 74 1002.9
20260902234604 16 169 6.4 25.7 0.00 0.00 0.00 74 1002.7
20260902233053 17 198 6.4 29.0 0.00 0.00 0.00 72 1002.8
20260902231555 17 152 6.4 24.1 0.00 0.00 0.00 67 1002.7
20260902230051 18 126 3.2 22.5 0.00 0.00 0.00 67 1002.7
20260902224550 18 208 6.4 24.1 0.00 0.00 0.00 66 1002.5
20260902223053 18 178 8.0 32.2 0.00 0.00 0.00 63 1002.4
20260902221550 18 156 8.0 22.5 0.00 0.00 0.00 65 1002.3
20260902220048 17 157 8.0 19.3 0.00 0.00 0.00 70 1002.5
20260902214546 17 161 8.0 19.3 0.00 0.00 0.00 72 1002.7
20260902213045 20 182 8.0 24.1 0.00 0.00 0.00 56 1002.6
20260902211544 20 217 1.6 24.1 0.00 0.00 0.00 59 1002.4
20260902210043 20 173 3.2 14.5 0.00 0.00 0.00 59 1002.7
20260902204541 20 181 1.6 11.3 0.00 0.00 0.00 59 1002.8
20260902203039 20 161 4.8 14.5 0.00 0.00 0.00 58 1002.8
20260902201547 20 192 3.2 8.0 0.00 0.00 0.00 58 1003.0
20260902200037 20 163 4.8 17.7 0.00 0.00 0.00 58 1003.2
20260902194535 20 212 4.8 19.3 0.00 0.00 0.00 58 1003.4
20260902193034 20 171 3.2 16.1 0.00 0.00 0.00 60 1003.4
20260902191535 20 186 4.8 12.9 0.00 0.00 0.00 60 1003.6
20260902190033 21 184 3.2 12.9 0.00 0.00 0.00 56 1003.6
20260902184531 20 209 4.8 17.7 0.00 0.00 0.00 55 1003.8
20260902183030 20 170 3.2 11.3 0.00 0.00 0.00 56 1003.8
20260902181531 20 79 6.4 24.1 0.00 0.00 0.00 56 1004.0
20260902180033 20 112 4.8 29.0 0.00 0.00 0.00 55 1004.1
20260902174526 21 156 1.6 11.3 0.00 0.00 0.00 55 1004.0
20260902173038 19 51 3.2 9.7 0.00 0.00 0.00 60 1004.2
20260902171520 19 187 4.8 14.5 0.00 0.00 0.00 61 1004.5
20260902170016 18 188 4.8 19.3 0.00 0.00 0.00 64 1004.7
20260902164512 18 86 3.2 25.7 0.00 0.00 0.00 65 1004.8
20260902163010 17 167 4.8 22.5 0.00 0.00 0.00 67 1005.0
20260902161508 17 212 4.8 24.1 0.00 0.00 0.00 68 1005.1
20260902160008 17 146 6.4 24.1 0.00 0.00 0.00 70 1005.1
20260902154504 17 202 3.2 14.5 0.00 0.00 0.00 71 1005.3
20260902153007 17 150 1.6 16.1 0.00 0.00 0.00 72 1005.1
20260902151504 17 127 3.2 9.7 0.00 0.00 0.00 71 1005.0
20260902150002 17 180 3.2 14.5 0.00 0.00 0.00 70 1005.1
20260902144600 17 170 6.4 19.3 0.00 0.00 0.00 72 1005.4
20260902143055 17 210 4.8 22.5 0.00 0.00 0.00 72 1005.4
20260902141555 16 198 3.2 27.4 0.00 0.00 0.00 73 1005.5
20260902140049 16 120 3.2 16.1 0.00 0.00 0.00 73 1005.6
20260902134549 16 184 3.2 19.3 0.00 0.00 0.00 73 1005.8
20260902133055 16 186 4.8 14.5 0.00 0.00 0.00 74 1005.8
20260902131548 16 183 4.8 19.3 0.00 0.00 0.00 74 1005.8
20260902130042 16 167 6.4 19.3 0.00 0.00 0.00 74 1005.7
20260902124541 16 173 4.8 16.1 0.00 0.00 0.00 74 1005.6
20260902123046 16 205 4.8 16.1 0.00 0.00 0.00 73 1005.7
20260902121538 16 167 4.8 22.5 0.00 0.00 0.00 72 1005.8
20260902120042 16 153 1.6 16.1 0.00 0.00 0.00 73 1006.0
20260902114548 16 180 4.8 19.3 0.00 0.00 0.00 72 1006.1
20260902113038 16 178 3.2 9.7 0.00 0.00 0.00 73 1006.3
20260902111541 16 223 0.0 8.0 0.00 0.00 0.00 72 1006.3
20260902110053 16 221 1.6 11.3 0.00 0.00 0.00 72 1006.4
20260902104530 17 195 0.0 12.9 0.00 0.00 0.00 71 1006.5
20260902103029 17 217 1.6 12.9 0.00 0.00 0.00 70 1006.6
20260902101527 17 171 3.2 9.7 0.00 0.00 0.00 71 1006.7
20260902100026 17 167 3.2 16.1 0.00 0.00 0.00 72 1006.8
20260902094526 17 258 3.2 12.9 0.00 0.00 0.00 71 1007.0
20260902093021 17 191 3.2 16.1 0.00 0.00 0.00 72 1007.1
20260902091520 16 188 1.6 16.1 0.00 0.00 0.00 74 1007.2
20260902090017 16 230 1.6 16.1 0.00 0.00 0.00 75 1007.5
20260902084514 17 167 4.8 17.7 0.00 0.00 0.00 75 1007.5
20260902083016 16 304 3.2 17.7 0.00 0.00 0.00 76 1007.6
20260902081512 17 272 6.4 17.7 0.00 0.00 0.00 76 1007.8
20260902080011 17 173 6.4 22.5 0.00 0.00 0.00 76 1007.7
20260902074511 17 136 9.7 17.7 0.00 0.00 0.00 77 1007.7
20260902073008 16 164 4.8 14.5 0.00 0.00 0.00 79 1007.8
20260902071505 17 138 6.4 16.1 0.00 0.00 0.00 79 1007.8
20260902070003 17 201 4.8 11.3 0.00 0.00 0.00 77 1007.9
20260902064502 17 182 8.0 22.5 0.00 0.00 0.00 76 1008.0
20260902063003 17 198 3.2 16.1 0.00 0.00 0.00 76 1008.0
20260902061613 17 189 4.8 16.1 0.00 0.00 0.00 76 1008.0
20260902060059 17 163 6.4 12.9 0.00 0.00 0.00 77 1008.2
20260902054558 17 175 4.8 14.5 0.00 0.00 0.00 77 1008.3
20260902053058 17 151 1.6 14.5 0.00 0.00 0.00 77 1008.3
20260902051600 17 187 3.2 11.3 0.00 0.00 0.00 79 1008.4
20260902050057 16 194 3.2 12.9 0.00 0.00 0.00 82 1008.5
20260902044557 16 171 1.6 4.8 0.00 0.00 0.00 84 1008.5
20260902043103 16 162 0.0 1.6 0.00 0.00 0.00 82 1008.5
20260902041555 17 162 0.0 4.8 0.00 0.00 0.00 80 1008.7
20260902040100 17 193 0.0 8.0 0.00 0.00 0.00 79 1008.6